Year,Month,Day,Hour,Minute,Value (Times are PST for temperature in C)
2015,05,18,00,00,11.60
2015,05,18,00,01,11.50
2015,05,18,00,02,11.50
2015,05,18,00,03,11.60
2015,05,18,00,04,11.60
2015,05,18,00,05,11.60
2015,05,18,00,06,11.70
2015,05,18,00,07,11.70
2015,05,18,00,08,11.80
2015,05,18,00,09,11.80
2015,05,18,00,10,11.80
2015,05,18,00,11,11.80
2015,05,18,00,12,11.90
2015,05,18,00,13,11.90
2015,05,18,00,14,11.90
2015,05,18,00,15,12.00
2015,05,18,00,16,12.00
2015,05,18,00,17,12.10
2015,05,18,00,18,12.10
2015,05,18,00,19,12.10
2015,05,18,00,20,12.20
2015,05,18,00,21,12.20
2015,05,18,00,22,12.30
2015,05,18,00,23,12.30
2015,05,18,00,24,12.30
2015,05,18,00,25,12.30
2015,05,18,00,26,12.20
2015,05,18,00,27,12.30
2015,05,18,00,28,12.20
2015,05,18,00,29,12.20
2015,05,18,00,30,12.20
2015,05,18,00,31,12.20
2015,05,18,00,32,12.20
2015,05,18,00,33,12.10
2015,05,18,00,34,12.10
2015,05,18,00,35,12.00
2015,05,18,00,36,12.00
2015,05,18,00,37,11.90
2015,05,18,00,38,11.90
2015,05,18,00,39,11.80
2015,05,18,00,40,11.80
2015,05,18,00,41,11.80
2015,05,18,00,42,11.80
2015,05,18,00,43,11.70
2015,05,18,00,44,11.70
2015,05,18,00,45,11.70
2015,05,18,00,46,11.70
2015,05,18,00,47,11.70
2015,05,18,00,48,11.70
2015,05,18,00,49,11.70
2015,05,18,00,50,11.70
2015,05,18,00,51,11.70
2015,05,18,00,52,11.70
2015,05,18,00,53,11.60
2015,05,18,00,54,11.60
2015,05,18,00,55,11.60
2015,05,18,00,56,11.60
2015,05,18,00,57,11.60
2015,05,18,00,58,11.60
2015,05,18,00,59,11.70
2015,05,18,01,00,11.70
2015,05,18,01,01,11.70
2015,05,18,01,02,11.70
2015,05,18,01,03,11.60
2015,05,18,01,04,11.60
2015,05,18,01,05,11.60
2015,05,18,01,06,11.60
2015,05,18,01,07,11.50
2015,05,18,01,08,11.50
2015,05,18,01,09,11.50
2015,05,18,01,10,11.40
2015,05,18,01,11,11.40
2015,05,18,01,12,11.40
2015,05,18,01,13,11.40
2015,05,18,01,14,11.30
2015,05,18,01,15,11.30
2015,05,18,01,16,11.30
2015,05,18,01,17,11.30
2015,05,18,01,18,11.30
2015,05,18,01,19,11.20
2015,05,18,01,20,11.20
2015,05,18,01,21,11.20
2015,05,18,01,22,11.20
2015,05,18,01,23,11.20
2015,05,18,01,24,11.20
2015,05,18,01,25,11.10
2015,05,18,01,26,11.10
2015,05,18,01,27,11.10
2015,05,18,01,28,11.10
2015,05,18,01,29,11.10
2015,05,18,01,30,11.10
2015,05,18,01,31,11.00
2015,05,18,01,32,11.00
2015,05,18,01,33,10.90
2015,05,18,01,34,10.90
2015,05,18,01,35,10.90
2015,05,18,01,36,10.80
2015,05,18,01,37,10.80
2015,05,18,01,38,10.80
2015,05,18,01,39,10.80
2015,05,18,01,40,10.70
2015,05,18,01,41,10.70
2015,05,18,01,42,10.70
2015,05,18,01,43,10.70
2015,05,18,01,44,10.70
2015,05,18,01,45,10.70
2015,05,18,01,46,10.70
2015,05,18,01,47,10.70
2015,05,18,01,48,10.70
2015,05,18,01,49,10.60
2015,05,18,01,50,10.60
2015,05,18,01,51,10.60
2015,05,18,01,52,10.60
2015,05,18,01,53,10.60
2015,05,18,01,54,10.60
2015,05,18,01,55,10.60
2015,05,18,01,56,10.60
2015,05,18,01,57,10.60
2015,05,18,01,58,10.60
2015,05,18,01,59,10.60
2015,05,18,02,00,10.60
2015,05,18,02,01,10.60
2015,05,18,02,02,10.60
2015,05,18,02,03,10.60
2015,05,18,02,04,10.60
2015,05,18,02,05,10.50
2015,05,18,02,06,10.50
2015,05,18,02,07,10.50
2015,05,18,02,08,10.50
2015,05,18,02,09,10.50
2015,05,18,02,10,10.40
2015,05,18,02,11,10.40
2015,05,18,02,12,10.40
2015,05,18,02,13,10.40
2015,05,18,02,14,10.40
2015,05,18,02,15,10.40
2015,05,18,02,16,10.40
2015,05,18,02,17,10.40
2015,05,18,02,18,10.40
2015,05,18,02,19,10.40
2015,05,18,02,20,10.40
2015,05,18,02,21,10.40
2015,05,18,02,22,10.40
2015,05,18,02,23,10.40
2015,05,18,02,24,10.40
2015,05,18,02,25,10.40
2015,05,18,02,26,10.40
2015,05,18,02,27,10.40
2015,05,18,02,28,10.50
2015,05,18,02,29,10.50
2015,05,18,02,30,10.60
2015,05,18,02,31,10.60
2015,05,18,02,32,10.60
2015,05,18,02,33,10.60
2015,05,18,02,34,10.70
2015,05,18,02,35,10.70
2015,05,18,02,36,10.70
2015,05,18,02,37,10.70
2015,05,18,02,38,10.70
2015,05,18,02,39,10.70
2015,05,18,02,40,10.70
2015,05,18,02,41,10.70
2015,05,18,02,42,10.70
2015,05,18,02,43,10.70
2015,05,18,02,44,10.70
2015,05,18,02,45,10.70
2015,05,18,02,46,10.70
2015,05,18,02,47,10.70
2015,05,18,02,48,10.70
2015,05,18,02,49,10.70
2015,05,18,02,50,10.70
2015,05,18,02,51,10.70
2015,05,18,02,52,10.70
2015,05,18,02,53,10.70
2015,05,18,02,54,10.70
2015,05,18,02,55,10.70
2015,05,18,02,56,10.70
2015,05,18,02,57,10.70
2015,05,18,02,58,10.70
2015,05,18,02,59,10.70
2015,05,18,03,00,10.70
2015,05,18,03,01,10.80
2015,05,18,03,02,10.70
2015,05,18,03,03,10.70
2015,05,18,03,04,10.70
2015,05,18,03,05,10.80
2015,05,18,03,06,10.80
2015,05,18,03,07,10.80
2015,05,18,03,08,10.90
2015,05,18,03,09,10.80
2015,05,18,03,10,10.80
2015,05,18,03,11,10.80
2015,05,18,03,12,10.80
2015,05,18,03,13,10.70
2015,05,18,03,14,10.70
2015,05,18,03,15,10.70
2015,05,18,03,16,10.70
2015,05,18,03,17,10.70
2015,05,18,03,18,10.60
2015,05,18,03,19,10.60
2015,05,18,03,20,10.50
2015,05,18,03,21,10.50
2015,05,18,03,22,10.40
2015,05,18,03,23,10.40
2015,05,18,03,24,10.30
2015,05,18,03,25,10.30
2015,05,18,03,26,10.30
2015,05,18,03,27,10.20
2015,05,18,03,28,10.20
2015,05,18,03,29,10.20
2015,05,18,03,30,10.20
2015,05,18,03,31,10.20
2015,05,18,03,32,10.10
2015,05,18,03,33,10.10
2015,05,18,03,34,10.10
2015,05,18,03,35,10.10
2015,05,18,03,36,10.10
2015,05,18,03,37,10.20
2015,05,18,03,38,10.10
2015,05,18,03,39,10.10
2015,05,18,03,40,10.10
2015,05,18,03,41,10.10
2015,05,18,03,42,10.10
2015,05,18,03,43,10.10
2015,05,18,03,44,10.10
2015,05,18,03,45,10.00
2015,05,18,03,46,10.00
2015,05,18,03,47,10.00
2015,05,18,03,48,10.00
2015,05,18,03,49,9.90
2015,05,18,03,50,9.90
2015,05,18,03,51,10.00
2015,05,18,03,52,10.00
2015,05,18,03,53,10.00
2015,05,18,03,54,10.00
2015,05,18,03,55,10.00
2015,05,18,03,56,10.10
2015,05,18,03,57,10.10
2015,05,18,03,58,10.10
2015,05,18,03,59,10.10
2015,05,18,04,00,10.10
2015,05,18,04,01,10.10
2015,05,18,04,02,10.10
2015,05,18,04,03,10.10
2015,05,18,04,04,10.10
2015,05,18,04,05,10.10
2015,05,18,04,06,10.10
2015,05,18,04,07,10.10
2015,05,18,04,08,10.00
2015,05,18,04,09,10.00
2015,05,18,04,10,10.00
2015,05,18,04,11,10.00
2015,05,18,04,12,10.00
2015,05,18,04,13,10.00
2015,05,18,04,14,10.00
2015,05,18,04,15,10.00
2015,05,18,04,16,10.00
2015,05,18,04,17,10.00
2015,05,18,04,18,10.00
2015,05,18,04,19,10.00
2015,05,18,04,20,10.10
2015,05,18,04,21,10.00
2015,05,18,04,22,10.00
2015,05,18,04,23,10.10
2015,05,18,04,24,10.20
2015,05,18,04,25,10.20
2015,05,18,04,26,10.20
2015,05,18,04,27,10.20
2015,05,18,04,28,10.10
2015,05,18,04,29,10.10
2015,05,18,04,30,10.00
2015,05,18,04,31,10.00
2015,05,18,04,32,10.00
2015,05,18,04,33,10.10
2015,05,18,04,34,10.10
2015,05,18,04,35,10.00
2015,05,18,04,36,10.00
2015,05,18,04,37,10.00
2015,05,18,04,38,10.00
2015,05,18,04,39,10.00
2015,05,18,04,40,10.00
2015,05,18,04,41,10.10
2015,05,18,04,42,10.10
2015,05,18,04,43,10.10
2015,05,18,04,44,10.10
2015,05,18,04,45,10.20
2015,05,18,04,46,10.20
2015,05,18,04,47,10.20
2015,05,18,04,48,10.30
2015,05,18,04,49,10.40
2015,05,18,04,50,10.40
2015,05,18,04,51,10.40
2015,05,18,04,52,10.40
2015,05,18,04,53,10.30
2015,05,18,04,54,10.30
2015,05,18,04,55,10.40
2015,05,18,04,56,10.50
2015,05,18,04,57,10.50
2015,05,18,04,58,10.50
2015,05,18,04,59,10.50
2015,05,18,05,00,10.50
2015,05,18,05,01,10.50
2015,05,18,05,02,10.50
2015,05,18,05,03,10.40
2015,05,18,05,04,10.30
2015,05,18,05,05,10.30
2015,05,18,05,06,10.40
2015,05,18,05,07,10.40
2015,05,18,05,08,10.50
2015,05,18,05,09,10.50
2015,05,18,05,10,10.50
2015,05,18,05,11,10.40
2015,05,18,05,12,10.40
2015,05,18,05,13,10.40
2015,05,18,05,14,10.40
2015,05,18,05,15,10.30
2015,05,18,05,16,10.40
2015,05,18,05,17,10.30
2015,05,18,05,18,10.40
2015,05,18,05,19,10.40
2015,05,18,05,20,10.30
2015,05,18,05,21,10.30
2015,05,18,05,22,10.30
2015,05,18,05,23,10.30
2015,05,18,05,24,10.30
2015,05,18,05,25,10.30
2015,05,18,05,26,10.40
2015,05,18,05,27,10.40
2015,05,18,05,28,10.30
2015,05,18,05,29,10.30
2015,05,18,05,30,10.40
2015,05,18,05,31,10.40
2015,05,18,05,32,10.40
2015,05,18,05,33,10.40
2015,05,18,05,34,10.40
2015,05,18,05,35,10.40
2015,05,18,05,36,10.40
2015,05,18,05,37,10.30
2015,05,18,05,38,10.30
2015,05,18,05,39,10.40
2015,05,18,05,40,10.40
2015,05,18,05,41,10.30
2015,05,18,05,42,10.40
2015,05,18,05,43,10.40
2015,05,18,05,44,10.40
2015,05,18,05,45,10.30
2015,05,18,05,46,10.30
2015,05,18,05,47,10.20
2015,05,18,05,48,10.20
2015,05,18,05,49,10.20
2015,05,18,05,50,10.20
2015,05,18,05,51,10.30
2015,05,18,05,52,10.30
2015,05,18,05,53,10.30
2015,05,18,05,54,10.30
2015,05,18,05,55,10.30
2015,05,18,05,56,10.30
2015,05,18,05,57,10.30
2015,05,18,05,58,10.30
2015,05,18,05,59,10.30
2015,05,18,06,00,10.40
2015,05,18,06,01,10.40
2015,05,18,06,02,10.40
2015,05,18,06,03,10.50
2015,05,18,06,04,10.50
2015,05,18,06,05,10.50
2015,05,18,06,06,10.50
2015,05,18,06,07,10.60
2015,05,18,06,08,10.60
2015,05,18,06,09,10.60
2015,05,18,06,10,10.70
2015,05,18,06,11,10.70
2015,05,18,06,12,10.70
2015,05,18,06,13,10.70
2015,05,18,06,14,10.70
2015,05,18,06,15,10.70
2015,05,18,06,16,10.80
2015,05,18,06,17,10.80
2015,05,18,06,18,10.90
2015,05,18,06,19,10.90
2015,05,18,06,20,10.90
2015,05,18,06,21,10.90
2015,05,18,06,22,10.90
2015,05,18,06,23,10.90
2015,05,18,06,24,10.90
2015,05,18,06,25,11.00
2015,05,18,06,26,11.00
2015,05,18,06,27,11.10
2015,05,18,06,28,11.10
2015,05,18,06,29,11.10
2015,05,18,06,30,11.10
2015,05,18,06,31,11.20
2015,05,18,06,32,11.20
2015,05,18,06,33,11.20
2015,05,18,06,34,11.20
2015,05,18,06,35,11.20
2015,05,18,06,36,11.20
2015,05,18,06,37,11.20
2015,05,18,06,38,11.20
2015,05,18,06,39,11.30
2015,05,18,06,40,11.30
2015,05,18,06,41,11.40
2015,05,18,06,42,11.40
2015,05,18,06,43,11.40
2015,05,18,06,44,11.40
2015,05,18,06,45,11.50
2015,05,18,06,46,11.60
2015,05,18,06,47,11.60
2015,05,18,06,48,11.70
2015,05,18,06,49,11.70
2015,05,18,06,50,11.80
2015,05,18,06,51,11.80
2015,05,18,06,52,11.80
2015,05,18,06,53,11.80
2015,05,18,06,54,11.90
2015,05,18,06,55,11.90
2015,05,18,06,56,11.90
2015,05,18,06,57,11.90
2015,05,18,06,58,11.90
2015,05,18,06,59,12.00
2015,05,18,07,00,11.90
2015,05,18,07,01,12.00
2015,05,18,07,02,11.90
2015,05,18,07,03,12.00
2015,05,18,07,04,12.00
2015,05,18,07,05,12.10
2015,05,18,07,06,12.10
2015,05,18,07,07,12.10
2015,05,18,07,08,12.00
2015,05,18,07,09,12.00
2015,05,18,07,10,12.00
2015,05,18,07,11,11.90
2015,05,18,07,12,11.90
2015,05,18,07,13,11.90
2015,05,18,07,14,12.00
2015,05,18,07,15,12.00
2015,05,18,07,16,12.00
2015,05,18,07,17,12.10
2015,05,18,07,18,12.10
2015,05,18,07,19,12.00
2015,05,18,07,20,12.00
2015,05,18,07,21,12.00
2015,05,18,07,22,12.00
2015,05,18,07,23,12.00
2015,05,18,07,24,12.00
2015,05,18,07,25,12.10
2015,05,18,07,26,12.10
2015,05,18,07,27,12.10
2015,05,18,07,28,12.10
2015,05,18,07,29,12.10
2015,05,18,07,30,12.20
2015,05,18,07,31,12.20
2015,05,18,07,32,12.20
2015,05,18,07,33,12.20
2015,05,18,07,34,12.20
2015,05,18,07,35,12.20
2015,05,18,07,36,12.20
2015,05,18,07,37,12.20
2015,05,18,07,38,12.20
2015,05,18,07,39,12.20
2015,05,18,07,40,12.20
2015,05,18,07,41,12.20
2015,05,18,07,42,12.20
2015,05,18,07,43,12.20
2015,05,18,07,44,12.20
2015,05,18,07,45,12.20
2015,05,18,07,46,12.20
2015,05,18,07,47,12.20
2015,05,18,07,48,12.20
2015,05,18,07,49,12.20
2015,05,18,07,50,12.30
2015,05,18,07,51,12.30
2015,05,18,07,52,12.40
2015,05,18,07,53,12.40
2015,05,18,07,54,12.40
2015,05,18,07,55,12.50
2015,05,18,07,56,12.50
2015,05,18,07,57,12.50
2015,05,18,07,58,12.50
2015,05,18,07,59,12.50
2015,05,18,08,00,12.50
2015,05,18,08,01,12.60
2015,05,18,08,02,12.60
2015,05,18,08,03,12.60
2015,05,18,08,04,12.60
2015,05,18,08,05,12.60
2015,05,18,08,06,12.60
2015,05,18,08,07,12.50
2015,05,18,08,08,12.50
2015,05,18,08,09,12.50
2015,05,18,08,10,12.50
2015,05,18,08,11,12.40
2015,05,18,08,12,12.40
2015,05,18,08,13,12.40
2015,05,18,08,14,12.40
2015,05,18,08,15,12.40
2015,05,18,08,16,12.40
2015,05,18,08,17,12.40
2015,05,18,08,18,12.40
2015,05,18,08,19,12.40
2015,05,18,08,20,12.40
2015,05,18,08,21,12.30
2015,05,18,08,22,12.30
2015,05,18,08,23,12.30
2015,05,18,08,24,12.30
2015,05,18,08,25,12.30
2015,05,18,08,26,12.30
2015,05,18,08,27,12.30
2015,05,18,08,28,12.30
2015,05,18,08,29,12.40
2015,05,18,08,30,12.40
2015,05,18,08,31,12.40
2015,05,18,08,32,12.40
2015,05,18,08,33,12.40
2015,05,18,08,34,12.40
2015,05,18,08,35,12.50
2015,05,18,08,36,12.50
2015,05,18,08,37,12.50
2015,05,18,08,38,12.50
2015,05,18,08,39,12.50
2015,05,18,08,40,12.50
2015,05,18,08,41,12.60
2015,05,18,08,42,12.60
2015,05,18,08,43,12.60
2015,05,18,08,44,12.60
2015,05,18,08,45,12.60
2015,05,18,08,46,12.60
2015,05,18,08,47,12.70
2015,05,18,08,48,12.70
2015,05,18,08,49,12.70
2015,05,18,08,50,12.70
2015,05,18,08,51,12.80
2015,05,18,08,52,12.80
2015,05,18,08,53,12.80
2015,05,18,08,54,12.80
2015,05,18,08,55,12.80
2015,05,18,08,56,12.80
2015,05,18,08,57,12.80
2015,05,18,08,58,12.80
2015,05,18,08,59,12.80
2015,05,18,09,00,12.80
2015,05,18,09,01,12.90
2015,05,18,09,02,12.90
2015,05,18,09,03,12.90
2015,05,18,09,04,12.90
2015,05,18,09,05,12.90
2015,05,18,09,06,12.90
2015,05,18,09,07,13.00
2015,05,18,09,08,13.00
2015,05,18,09,09,13.00
2015,05,18,09,10,13.00
2015,05,18,09,11,13.10
2015,05,18,09,12,13.10
2015,05,18,09,13,13.10
2015,05,18,09,14,13.10
2015,05,18,09,15,13.10
2015,05,18,09,16,13.10
2015,05,18,09,17,13.10
2015,05,18,09,18,13.00
2015,05,18,09,19,13.00
2015,05,18,09,20,13.00
2015,05,18,09,21,13.00
2015,05,18,09,22,13.00
2015,05,18,09,23,13.00
2015,05,18,09,24,13.00
2015,05,18,09,25,13.10
2015,05,18,09,26,13.10
2015,05,18,09,27,13.10
2015,05,18,09,28,13.10
2015,05,18,09,29,13.10
2015,05,18,09,30,13.10
2015,05,18,09,31,13.10
2015,05,18,09,32,13.10
2015,05,18,09,33,13.10
2015,05,18,09,34,13.20
2015,05,18,09,35,13.20
2015,05,18,09,36,13.20
2015,05,18,09,37,13.20
2015,05,18,09,38,13.20
2015,05,18,09,39,13.20
2015,05,18,09,40,13.20
2015,05,18,09,41,13.30
2015,05,18,09,42,13.30
2015,05,18,09,43,13.30
2015,05,18,09,44,13.30
2015,05,18,09,45,13.40
2015,05,18,09,46,13.40
2015,05,18,09,47,13.40
2015,05,18,09,48,13.40
2015,05,18,09,49,13.40
2015,05,18,09,50,13.50
2015,05,18,09,51,13.50
2015,05,18,09,52,13.60
2015,05,18,09,53,13.60
2015,05,18,09,54,13.60
2015,05,18,09,55,13.70
2015,05,18,09,56,13.70
2015,05,18,09,57,13.70
2015,05,18,09,58,13.60
2015,05,18,09,59,13.60
2015,05,18,10,00,13.60
2015,05,18,10,01,13.60
2015,05,18,10,02,13.60
2015,05,18,10,03,13.60
2015,05,18,10,04,13.60
2015,05,18,10,05,13.60
2015,05,18,10,06,13.60
2015,05,18,10,07,13.60
2015,05,18,10,08,13.60
2015,05,18,10,09,13.60
2015,05,18,10,10,13.60
2015,05,18,10,11,13.60
2015,05,18,10,12,13.60
2015,05,18,10,13,13.60
2015,05,18,10,14,13.60
2015,05,18,10,15,13.50
2015,05,18,10,16,13.50
2015,05,18,10,17,13.50
2015,05,18,10,18,13.50
2015,05,18,10,19,13.50
2015,05,18,10,20,13.50
2015,05,18,10,21,13.50
2015,05,18,10,22,13.50
2015,05,18,10,23,13.50
2015,05,18,10,24,13.60
2015,05,18,10,25,13.60
2015,05,18,10,26,13.60
2015,05,18,10,27,13.60
2015,05,18,10,28,13.60
2015,05,18,10,29,13.60
2015,05,18,10,30,13.50
2015,05,18,10,31,13.50
2015,05,18,10,32,13.50
2015,05,18,10,33,13.50
2015,05,18,10,34,13.40
2015,05,18,10,35,13.40
2015,05,18,10,36,13.40
2015,05,18,10,37,13.40
2015,05,18,10,38,13.40
2015,05,18,10,39,13.40
2015,05,18,10,40,13.40
2015,05,18,10,41,13.40
2015,05,18,10,42,13.40
2015,05,18,10,43,13.50
2015,05,18,10,44,13.50
2015,05,18,10,45,13.50
2015,05,18,10,46,13.50
2015,05,18,10,47,13.50
2015,05,18,10,48,13.50
2015,05,18,10,49,13.50
2015,05,18,10,50,13.50
2015,05,18,10,51,13.50
2015,05,18,10,52,13.50
2015,05,18,10,53,13.50
2015,05,18,10,54,13.50
2015,05,18,10,55,13.50
2015,05,18,10,56,13.50
2015,05,18,10,57,13.50
2015,05,18,10,58,13.50
2015,05,18,10,59,13.60
2015,05,18,11,00,13.60
2015,05,18,11,01,13.60
2015,05,18,11,02,13.70
2015,05,18,11,03,13.70
2015,05,18,11,04,13.80
2015,05,18,11,05,13.80
2015,05,18,11,06,13.80
2015,05,18,11,07,13.80
2015,05,18,11,08,13.80
2015,05,18,11,09,13.90
2015,05,18,11,10,13.90
2015,05,18,11,11,13.90
2015,05,18,11,12,13.90
2015,05,18,11,13,13.90
2015,05,18,11,14,13.90
2015,05,18,11,15,13.90
2015,05,18,11,16,13.90
2015,05,18,11,17,13.90
2015,05,18,11,18,13.90
2015,05,18,11,19,13.90
2015,05,18,11,20,13.90
2015,05,18,11,21,13.90
2015,05,18,11,22,13.90
2015,05,18,11,23,14.00
2015,05,18,11,24,14.00
2015,05,18,11,25,14.00
2015,05,18,11,26,14.00
2015,05,18,11,27,14.10
2015,05,18,11,28,14.10
2015,05,18,11,29,14.10
2015,05,18,11,30,14.20
2015,05,18,11,31,14.20
2015,05,18,11,32,14.20
2015,05,18,11,33,14.30
2015,05,18,11,34,14.30
2015,05,18,11,35,14.30
2015,05,18,11,36,14.40
2015,05,18,11,37,14.40
2015,05,18,11,38,14.40
2015,05,18,11,39,14.50
2015,05,18,11,40,14.50
2015,05,18,11,41,14.50
2015,05,18,11,42,14.50
2015,05,18,11,43,14.50
2015,05,18,11,44,14.50
2015,05,18,11,45,14.50
2015,05,18,11,46,14.50
2015,05,18,11,47,14.50
2015,05,18,11,48,14.50
2015,05,18,11,49,14.60
2015,05,18,11,50,14.60
2015,05,18,11,51,14.70
2015,05,18,11,52,14.70
2015,05,18,11,53,14.80
2015,05,18,11,54,14.80
2015,05,18,11,55,14.90
2015,05,18,11,56,14.90
2015,05,18,11,57,14.90
2015,05,18,11,58,14.90
2015,05,18,11,59,14.90
2015,05,18,12,00,14.90
2015,05,18,12,01,14.90
2015,05,18,12,02,15.00
2015,05,18,12,03,15.10
2015,05,18,12,04,15.10
2015,05,18,12,05,15.20
2015,05,18,12,06,15.30
2015,05,18,12,07,15.40
2015,05,18,12,08,15.40
2015,05,18,12,09,15.50
2015,05,18,12,10,15.50
2015,05,18,12,11,15.60
2015,05,18,12,12,15.60
2015,05,18,12,13,15.50
2015,05,18,12,14,15.50
2015,05,18,12,15,15.50
2015,05,18,12,16,15.60
2015,05,18,12,17,15.60
2015,05,18,12,18,15.70
2015,05,18,12,19,15.70
2015,05,18,12,20,15.60
2015,05,18,12,21,15.60
2015,05,18,12,22,15.70
2015,05,18,12,23,15.70
2015,05,18,12,24,15.70
2015,05,18,12,25,15.70
2015,05,18,12,26,15.80
2015,05,18,12,27,15.80
2015,05,18,12,28,15.80
2015,05,18,12,29,15.90
2015,05,18,12,30,15.90
2015,05,18,12,31,15.90
2015,05,18,12,32,15.90
2015,05,18,12,33,16.00
2015,05,18,12,34,16.00
2015,05,18,12,35,16.10
2015,05,18,12,36,16.20
2015,05,18,12,37,16.20
2015,05,18,12,38,16.30
2015,05,18,12,39,16.30
2015,05,18,12,40,16.40
2015,05,18,12,41,16.40
2015,05,18,12,42,16.50
2015,05,18,12,43,16.60
2015,05,18,12,44,16.60
2015,05,18,12,45,16.70
2015,05,18,12,46,16.70
2015,05,18,12,47,16.80
2015,05,18,12,48,16.80
2015,05,18,12,49,16.80
2015,05,18,12,50,16.90
2015,05,18,12,51,16.90
2015,05,18,12,52,17.00
2015,05,18,12,53,17.10
2015,05,18,12,54,17.10
2015,05,18,12,55,17.20
2015,05,18,12,56,17.30
2015,05,18,12,57,17.40
2015,05,18,12,58,17.40
2015,05,18,12,59,17.40
2015,05,18,13,00,17.50
2015,05,18,13,01,17.50
2015,05,18,13,02,17.60
2015,05,18,13,03,17.70
2015,05,18,13,04,17.80
2015,05,18,13,05,17.80
2015,05,18,13,06,17.90
2015,05,18,13,07,17.90
2015,05,18,13,08,17.90
2015,05,18,13,09,18.00
2015,05,18,13,10,18.10
2015,05,18,13,11,18.10
2015,05,18,13,12,18.20
2015,05,18,13,13,18.30
2015,05,18,13,14,18.40
2015,05,18,13,15,18.50
2015,05,18,13,16,18.50
2015,05,18,13,17,18.60
2015,05,18,13,18,18.70
2015,05,18,13,19,18.80
2015,05,18,13,20,18.70
2015,05,18,13,21,18.70
2015,05,18,13,22,18.60
2015,05,18,13,23,18.60
2015,05,18,13,24,18.60
2015,05,18,13,25,18.60
2015,05,18,13,26,18.60
2015,05,18,13,27,18.60
2015,05,18,13,28,18.60
2015,05,18,13,29,18.60
2015,05,18,13,30,18.60
2015,05,18,13,31,18.60
2015,05,18,13,32,18.60
2015,05,18,13,33,18.60
2015,05,18,13,34,18.70
2015,05,18,13,35,18.70
2015,05,18,13,36,18.80
2015,05,18,13,37,18.80
2015,05,18,13,38,18.80
2015,05,18,13,39,18.80
2015,05,18,13,40,18.70
2015,05,18,13,41,18.70
2015,05,18,13,42,18.60
2015,05,18,13,43,18.70
2015,05,18,13,44,18.70
2015,05,18,13,45,18.70
2015,05,18,13,46,18.80
2015,05,18,13,47,18.80
2015,05,18,13,48,18.90
2015,05,18,13,49,19.00
2015,05,18,13,50,18.90
2015,05,18,13,51,18.90
2015,05,18,13,52,18.80
2015,05,18,13,53,18.80
2015,05,18,13,54,18.70
2015,05,18,13,55,18.70
2015,05,18,13,56,18.70
2015,05,18,13,57,18.80
2015,05,18,13,58,18.80
2015,05,18,13,59,18.80
2015,05,18,14,00,18.70
2015,05,18,14,01,18.70
2015,05,18,14,02,18.80
2015,05,18,14,03,18.80
2015,05,18,14,04,18.90
2015,05,18,14,05,18.90
2015,05,18,14,06,18.90
2015,05,18,14,07,18.90
2015,05,18,14,08,18.90
2015,05,18,14,09,18.90
2015,05,18,14,10,19.00
2015,05,18,14,11,19.00
2015,05,18,14,12,18.90
2015,05,18,14,13,18.80
2015,05,18,14,14,18.80
2015,05,18,14,15,18.80
2015,05,18,14,16,18.70
2015,05,18,14,17,18.60
2015,05,18,14,18,18.50
2015,05,18,14,19,18.50
2015,05,18,14,20,18.40
2015,05,18,14,21,18.30
2015,05,18,14,22,18.30
2015,05,18,14,23,18.30
2015,05,18,14,24,18.30
2015,05,18,14,25,18.30
2015,05,18,14,26,18.30
2015,05,18,14,27,18.20
2015,05,18,14,28,18.20
2015,05,18,14,29,18.20
2015,05,18,14,30,18.10
2015,05,18,14,31,18.10
2015,05,18,14,32,18.10
2015,05,18,14,33,18.00
2015,05,18,14,34,18.00
2015,05,18,14,35,18.00
2015,05,18,14,36,18.10
2015,05,18,14,37,18.10
2015,05,18,14,38,18.00
2015,05,18,14,39,18.10
2015,05,18,14,40,18.10
2015,05,18,14,41,18.00
2015,05,18,14,42,18.00
2015,05,18,14,43,18.00
2015,05,18,14,44,18.00
2015,05,18,14,45,18.10
2015,05,18,14,46,18.10
2015,05,18,14,47,18.10
2015,05,18,14,48,18.20
2015,05,18,14,49,18.20
2015,05,18,14,50,18.20
2015,05,18,14,51,18.20
2015,05,18,14,52,18.30
2015,05,18,14,53,18.20
2015,05,18,14,54,18.20
2015,05,18,14,55,18.20
2015,05,18,14,56,18.30
2015,05,18,14,57,18.40
2015,05,18,14,58,18.50
2015,05,18,14,59,18.50
2015,05,18,15,00,18.60
2015,05,18,15,01,18.60
2015,05,18,15,02,18.60
2015,05,18,15,03,18.60
2015,05,18,15,04,18.60
2015,05,18,15,05,18.60
2015,05,18,15,06,18.60
2015,05,18,15,07,18.60
2015,05,18,15,08,18.70
2015,05,18,15,09,18.70
2015,05,18,15,10,18.80
2015,05,18,15,11,18.80
2015,05,18,15,12,18.70
2015,05,18,15,13,18.70
2015,05,18,15,14,18.80
2015,05,18,15,15,18.90
2015,05,18,15,16,18.90
2015,05,18,15,17,19.00
2015,05,18,15,18,18.90
2015,05,18,15,19,18.90
2015,05,18,15,20,19.00
2015,05,18,15,21,19.00
2015,05,18,15,22,19.10
2015,05,18,15,23,19.20
2015,05,18,15,24,19.20
2015,05,18,15,25,19.20
2015,05,18,15,26,19.30
2015,05,18,15,27,19.30
2015,05,18,15,28,19.30
2015,05,18,15,29,19.40
2015,05,18,15,30,19.30
2015,05,18,15,31,19.30
2015,05,18,15,32,19.40
2015,05,18,15,33,19.40
2015,05,18,15,34,19.40
2015,05,18,15,35,19.40
2015,05,18,15,36,19.40
2015,05,18,15,37,19.50
2015,05,18,15,38,19.50
2015,05,18,15,39,19.50
2015,05,18,15,40,19.50
2015,05,18,15,41,19.50
2015,05,18,15,42,19.60
2015,05,18,15,43,19.60
2015,05,18,15,44,19.60
2015,05,18,15,45,19.60
2015,05,18,15,46,19.60
2015,05,18,15,47,19.60
2015,05,18,15,48,19.60
2015,05,18,15,49,19.60
2015,05,18,15,50,19.60
2015,05,18,15,51,19.70
2015,05,18,15,52,19.70
2015,05,18,15,53,19.60
2015,05,18,15,54,19.60
2015,05,18,15,55,19.50
2015,05,18,15,56,19.50
2015,05,18,15,57,19.40
2015,05,18,15,58,19.40
2015,05,18,15,59,19.40
2015,05,18,16,00,19.40
2015,05,18,16,01,19.40
2015,05,18,16,02,19.50
2015,05,18,16,03,19.50
2015,05,18,16,04,19.40
2015,05,18,16,05,19.50
2015,05,18,16,06,19.50
2015,05,18,16,07,19.50
2015,05,18,16,08,19.60
2015,05,18,16,09,19.60
2015,05,18,16,10,19.60
2015,05,18,16,11,19.70
2015,05,18,16,12,19.70
2015,05,18,16,13,19.70
2015,05,18,16,14,19.70
2015,05,18,16,15,19.80
2015,05,18,16,16,19.80
2015,05,18,16,17,19.90
2015,05,18,16,18,19.90
2015,05,18,16,19,20.00
2015,05,18,16,20,20.00
2015,05,18,16,21,20.10
2015,05,18,16,22,20.20
2015,05,18,16,23,20.30
2015,05,18,16,24,20.40
2015,05,18,16,25,20.50
2015,05,18,16,26,20.60
2015,05,18,16,27,20.70
2015,05,18,16,28,20.70
2015,05,18,16,29,20.80
2015,05,18,16,30,20.80
2015,05,18,16,31,20.80
2015,05,18,16,32,20.90
2015,05,18,16,33,20.90
2015,05,18,16,34,21.00
2015,05,18,16,35,21.00
2015,05,18,16,36,21.00
2015,05,18,16,37,21.10
2015,05,18,16,38,21.10
2015,05,18,16,39,21.10
2015,05,18,16,40,21.10
2015,05,18,16,41,21.10
2015,05,18,16,42,21.00
2015,05,18,16,43,21.00
2015,05,18,16,44,20.90
2015,05,18,16,45,20.90
2015,05,18,16,46,20.90
2015,05,18,16,47,20.80
2015,05,18,16,48,20.80
2015,05,18,16,49,20.80
2015,05,18,16,50,20.80
2015,05,18,16,51,20.80
2015,05,18,16,52,20.80
2015,05,18,16,53,20.80
2015,05,18,16,54,20.70
2015,05,18,16,55,20.70
2015,05,18,16,56,20.70
2015,05,18,16,57,20.70
2015,05,18,16,58,20.70
2015,05,18,16,59,20.70
2015,05,18,17,00,20.70
2015,05,18,17,01,20.70
2015,05,18,17,02,20.70
2015,05,18,17,03,20.70
2015,05,18,17,04,20.70
2015,05,18,17,05,20.70
2015,05,18,17,06,20.80
2015,05,18,17,07,20.80
2015,05,18,17,08,20.90
2015,05,18,17,09,21.00
2015,05,18,17,10,21.00
2015,05,18,17,11,21.10
2015,05,18,17,12,21.10
2015,05,18,17,13,21.20
2015,05,18,17,14,21.30
2015,05,18,17,15,21.30
2015,05,18,17,16,21.30
2015,05,18,17,17,21.30
2015,05,18,17,18,21.30
2015,05,18,17,19,21.30